AKST,Max TemperatureF,Mean TemperatureF,Min TemperatureF,Max Dew PointF,MeanDew PointF,Min DewpointF,Max Humidity, Mean Humidity, Min Humidity, Max Sea Level PressureIn, Mean Sea Level PressureIn, Min Sea Level PressureIn, Max VisibilityMiles, Mean VisibilityMiles, Min VisibilityMiles, Max Wind SpeedMPH, Mean Wind SpeedMPH, Max Gust SpeedMPH,PrecipitationIn, CloudCover, Events, WindDirDegrees
2014-1-1,42,38,33,36,34,32,100,90,66,29.50,29.26,29.14,10,8,4,23,7,36,0.72,8,Rain,179
2014-1-2,35,32,28,34,30,25,100,87,78,30.08,29.79,29.50,10,10,7,17,5,22,0.00,3,,5
2014-1-3,35,31,27,32,29,25,96,90,85,30.26,30.22,30.10,10,9,2,7,2,,0.03,7,Rain-Snow,349
2014-1-4,41,36,33,34,32,30,96,88,67,30.21,29.82,29.51,10,9,6,13,2,21,0.28,8,Rain,325
2014-1-5,41,38,35,37,35,32,100,96,73,29.78,29.68,29.48,10,4,0,16,2,22,0.49,8,Fog-Rain,4
2014-1-6,42,38,33,36,33,32,100,95,76,29.78,29.74,29.70,10,4,1,20,7,31,0.72,8,Rain-Snow,174
2014-1-7,39,36,33,37,34,33,100,97,89,29.70,29.59,29.40,10,3,0,6,0,,0.11,8,Fog-Rain,351
2014-1-8,35,34,32,34,33,30,100,96,89,29.39,29.27,29.19,10,4,1,10,1,,0.43,7,Rain-Snow,355
2014-1-9,34,31,28,31,27,25,89,83,78,29.35,29.25,29.18,10,10,10,17,12,22,0.00,4,,11
2014-1-10,32,30,28,27,25,23,85,79,75,29.39,29.35,29.26,10,10,10,17,10,23,0.00,5,,9
2014-1-11,30,24,19,24,19,15,85,76,69,29.25,29.13,29.08,10,10,10,17,13,29,0.00,1,,4
2014-1-12,26,24,21,23,20,14,88,83,74,29.37,29.17,29.05,10,6,0,12,9,17,0.00,8,Fog-Snow,360
2014-1-13,32,24,15,30,25,13,100,93,81,29.61,29.38,29.07,10,5,1,9,4,,0.01,7,Snow,346
2014-1-14,39,32,24,36,31,22,100,92,49,29.62,29.01,28.82,10,7,1,17,4,28,0.64,7,Rain-Snow,23
2014-1-15,43,34,26,37,31,25,100,93,68,29.73,29.68,29.57,10,5,1,17,2,22,0.19,7,Rain-Snow,269
2014-1-16,39,34,30,36,33,28,100,90,76,29.74,29.52,29.30,10,10,7,17,6,28,0.23,4,Rain,357
2014-1-17,43,38,32,39,37,31,100,94,86,29.57,29.29,29.15,10,4,2,8,3,,3.30,8,Rain-Snow,322
2014-1-18,41,37,33,37,34,25,100,85,60,29.81,29.34,29.15,10,9,4,20,7,25,0.36,8,Rain-Snow,185
2014-1-19,41,36,32,36,33,30,100,90,70,29.88,29.82,29.73,10,8,2,10,2,18,0.24,8,Rain-Snow,319
2014-1-20,48,40,33,38,34,31,97,73,50,29.88,29.78,29.57,10,10,5,24,9,34,0.05,5,Rain,211
2014-1-21,44,40,37,40,38,34,100,91,73,29.68,29.53,29.39,10,8,3,25,7,38,0.54,8,Rain,253
2014-1-22,43,38,35,39,37,36,100,97,86,29.67,29.60,29.53,10,4,1,8,1,,0.96,8,Rain,7
2014-1-23,45,41,37,42,39,37,100,95,80,29.83,29.72,29.47,10,5,1,16,3,23,0.82,8,Rain,333
2014-1-24,46,41,36,43,41,36,100,95,86,30.14,29.88,29.68,10,6,2,18,3,24,0.85,8,Rain,183
2014-1-25,37,34,30,37,35,30,100,97,93,30.16,30.09,29.94,10,3,0,7,1,,0.04,6,Fog-Rain,345
2014-1-26,52,44,37,41,39,31,100,91,45,30.03,29.97,29.83,10,7,1,10,2,32,0.53,7,Rain,336
2014-1-27,57,47,37,43,39,29,100,87,33,29.90,29.79,29.65,10,9,5,26,6,39,0.30,6,Rain,169
2014-1-28,43,38,33,39,37,33,100,96,76,30.07,29.98,29.90,10,4,0,13,1,18,0.17,8,Fog-Rain,222
2014-1-29,41,37,33,39,36,32,100,97,92,30.17,30.11,30.06,10,7,1,5,1,,0.06,8,Rain,335
2014-1-30,39,34,30,34,30,26,100,85,73,30.19,30.17,30.14,10,10,9,15,6,23,0.00,3,,2
2014-1-31,39,36,32,26,23,21,75,63,51,30.21,30.17,30.15,10,10,10,18,14,30,0.00,0,,17